This demonstration page uses our WeatherBlox Daily Observations layout. Learn more.

Left ArrowRight Arrow

Hourly Observations for May 5, 2020

Temp ( °F °C ) Dew Point ( °F °C ) Humidity (%) Winds ( mph kmh ) Pressure ( in mb ) Visibility ( mi km ) Precip ( " mm )
12:56 am 00:56 Clear 46 7.8 41 5 83 83 WNW 9 15 30.09 1019 10 16 0.00 0.00
1:56 am 01:56 Clear 46 7.8 39 3.9 77 77 WNW 12 19 30.08 1019 10 16 0.00 0.00
2:56 am 02:56 Clear 47 8.3 39 3.9 74 74 WNW 14 22 30.08 1019 10 16 0.00 0.00
3:56 am 03:56 Clear 47 8.3 39 3.9 74 74 NW 14 22 30.08 1019 10 16 0.00 0.00
4:56 am 04:56 Clear 45 7.2 38 3.3 77 77 WNW 12 19 30.09 1019 10 16 0.00 0.00
5:56 am 05:56 Clear 46 7.8 38 3.3 73 73 WNW 13 20 30.09 1019 10 16 0.00 0.00
6:56 am 06:56 Sunny 46 7.8 38 3.3 73 73 NW 13 20 30.12 1020 10 16 0.00 0.00
8:56 am 08:56 Sunny 53 11.7 39 3.9 59 59 WNW 14 22 30.15 1021 10 16 0.00 0.00
9:56 am 09:56 Sunny 57 13.9 38 3.3 49 49 WNW 16 26 30.16 1021 10 16 0.00 0.00
10:56 am 10:56 Sunny 61 16.1 37 2.8 41 41 NW 20 31 30.16 1021 10 16 0.00 0.00
11:56 am 11:56 Sunny 62 16.7 34 1.1 35 35 NW 22 35 30.16 1021 10 16 0.00 0.00
12:56 pm 12:56 Sunny 65 18.3 35 1.7 33 33 NNW 15 24 30.14 1021 10 16 0.00 0.00
1:56 pm 13:56 Mostly Sunny 66 18.9 33 0.6 29 29 NW 20 31 30.13 1020 10 16 0.00 0.00
2:56 pm 14:56 Mostly Sunny 67 19.4 33 0.6 28 28 NW 14 22 30.12 1020 10 16 0.00 0.00
3:56 pm 15:56 Mostly Sunny 68 20 30 -1.1 24 24 NNW 20 31 30.11 1020 10 16 0.00 0.00
4:56 pm 16:56 Sunny 67 19.4 30 -1.1 25 25 NNW 15 24 30.11 1020 10 16 0.00 0.00
5:56 pm 17:56 Sunny 67 19.4 30 -1.1 25 25 NNW 15 24 30.11 1020 10 16 0.00 0.00
6:56 pm 18:56 Sunny 66 18.9 29 -1.7 25 25 N 15 24 30.12 1020 10 16 0.00 0.00
7:56 pm 19:56 Sunny 61 16.1 33 0.6 35 35 N 8 13 30.12 1020 10 16 0.00 0.00
8:56 pm 20:56 Cloudy 58 14.4 36 2.2 44 44 NNE 29 46 30.15 1021 10 16 0.00 0.00
9:56 pm 21:56 Mostly Cloudy 53 11.7 38 3.3 57 57 NNE 17 28 30.20 1023 10 16 0.00 0.00
10:56 pm 22:56 Cloudy 53 11.7 37 2.8 55 55 NNW 6 9 30.23 1024 10 16 0.00 0.00
11:56 pm 23:56 Cloudy 53 11.7 36 2.2 52 52 NNE 5 7 30.22 1024 10 16 0.00 0.00

Powered by AerisWeather